{"data":{"norad_id":48282,"epoch":"2026-09-19T12:42:02.197440Z","epoch_age_seconds":117530,"freshness":"FRESH","line1":"1 48282U 21036G   26262.52919210  .00000470  00000+0  26914-4 0  9999","line2":"2 48282  53.1592 253.3402 0001132 102.5815 257.5314 15.31701919298114","mean_motion":15.31701919,"eccentricity":0.0001132,"inclination_deg":53.1592,"raan_deg":253.3402,"arg_perigee_deg":102.5815,"mean_anomaly_deg":257.5314,"bstar":2.6914e-5,"rev_number":29811,"period_min":94.013070176221,"perigee_km":469.95898256417,"apogee_km":471.50956702078,"semimajor_km":6848.8712747925,"source":"CELESTRAK","updated_at":"2026-09-20T09:00:38.928287Z"}}